SCP
0 0 0 0 0 0 0 0 0 -0 -0 -0 0 0 0 0 0 0 0 0 0 0 0 0 0 0 0 0 0 0 0 0 0 0 0 0 0 0 0 0 0 0 0
0 0 0 0 0 0 0 0 0 0 -0 -0 0 0 0 0 0 0 0 0 0 0 0 0 0 0 0 0 0 0 0 0 0 0 0 0 0 0 0 0 0 0 0
0 0 0 0 0 0 0 0 0 0 0 0 0 0 0 0 0 0 0 0 0 0 0 0 0 0 0 0 0 0 0 0 0 0 0 0 0 0 0 0 0 0 0
0 0 0 0 0 0 0 0 0 0 0 0 0 0 0 0 0 0 0 0 0 0 0 0 0 0 0 0 0 0 0 0 0 0 0 0 0 0 0 0 0 0 0
0 0 0 0 0 0 0 0 0 0 0 0 0 0 0 0 0 0 0 0 0 0 0 0 0 0 0 0 0 0 0 0 0 0 0 0 0 0 0 0 0 0 0
0 0 0 0 0 0 0 0 0 0 0 0 0 0 0 0 0 0 0 0 0 0 0 0 0 0 0 0 0 0 0 0 0 0 0 0 0 0 0 0 0 0 0
0 0 0 0 0 0 0 0 0 0 0 0 0 0 0 0 0 0 0 0 0 0 0 0 0 0 0 0 0 0 0 0 0 0 0 0 0 0 0 0 0 0 0
0 0 0 0 0 0 0 0 0 0 0 0 0 0 0 0 0 0 0 0 0 0 0 0 0 0 0 0 0 0 0 0 0 0 0 0 0 0 0 0 0 0 0
0 0 0 0 0 0 0 0 0 0 0 0 0 0 0 0 0 0 0 0 0 0 0 0 0 0 0 0 0 0 0 0 0 0 0 0 0 0 0 0 0 0 0
0 0 0 0 0 0 0 0 0 0 0 0 -0 -0 0 0 0 0 0 0 0 0 0 0 0 0 0 0 0 0 0 0 0 0 0 0 0 0 0 0 0 0 0
0 0 0 0 0 0 0 0 0 0 0 0 -0 -0 0 0 0 0 0 0 0 0 0 0 0 0 0 0 0 0 0 0 0 0 0 0 0 0 0 0 0 0 0
0 0 0 0 0 0 0 0 0 0 0 -0 -0 0 0 0 -0 0 0 0 0 0 0 0 0 0 0 0 0 0 0 0 0 0 0 0 0 0 0 0 0 0 0
0 0 0 0 0 0 0 0 0 -0 -0 -0 -0 -0 -0 -0 -0 -0 0 0 0 0 0 0 0 0 0 0 0 0 0 0 0 0 0 0 0 0 0 0 0 0 0
0 0 0 0 0 0 0 0 0 -0 -0 -0 -0 -0 -0 -0 0 0 0 0 0 0 0 0 0 0 0 0 0 0 0 0 0 0 0 0 0 0 0 0 0 0 0
0 0 0 0 -0 0 0 0 0 -0 -0 -0 -0 -0 -0 0 0 0 0 0 0 0 0 0 0 0 0 0 0 0 0 0 0 0 0 0 0 0 0 0 0 0 0
0 0 0 0 0 0 0 0 0 -0 -0 -0 -0 -0 -0 0 0 0 0 0 0 0 0 0 0 0 0 0 0 0 0 0 0 0 0 0 0 0 0 0 0 0 0
0 0 0 0 0 0 0 0 0 -0 -0 -0 -0 0 0 0 0 0 0 0 0 0 0 0 0 0 0 0 0 0 0 0 0 0 0 0 0 0 0 0 0 0 0
0 0 0 0 0 0 0 0 0 0 0 0 0 0 0 0 0 0 0 0 0 0 0 0 0 0 0 0 0 0 0 0 0 0 0 0 0 0 0 0 0 0 0
0 0 0 0 0 0 0 0 0 0 0 0 0 0 0 0 0 0 0 0 0 0 0 0 0 0 0 0 0 0 0 0 0 0 0 0 0 0 0 0 0 0 0
0 0 0 0 0 0 0 0 0 0 0 0 0 0 0 0 0 0 0 0 0 0 0 0 0 0 0 0 0 0 0 0 0 0 0 0 0 0 0 0 0 0 0
0 0 0 0 0 0 0 0 0 0 0 0 0 0 0 0 0 0 0 0 0 0 0 0 0 0 0 0 0 0 0 0 0 0 0 0 0 0 0 0 0 0 0
0 0 0 0 0 0 0 0 0 0 0 0 0 0 0 0 0 0 0 0 0 0 0 0 0 0 0 0 0 0 0 0 0 0 0 0 0 0 0 0 0 0 0
0 0 0 0 0 0 0 0 0 0 0 0 -0 -0 0 0 0 0 0 0 0 0 0 0 0 0 0 0 0 0 0 0 0 0 0 0 0 0 0 0 0 0 0
0 0 0 0 0 0 0 0 0 0 0 0 -0 -0 -0 0 0 0 0 0 0 0 0 0 0 0 0 0 0 0 0 0 0 0 0 0 0 0 0 0 0 0 0
0 0 0 0 0 0 0 0 0 0 0 0 0 0 0 0 0 0 0 0 0 0 0 0 0 0 0 0 0 0 0 0 0 0 0 0 0 0 0 0 0 0 0
0 0 0 0 0 0 0 0 0 0 0 0 0 0 0 0 0 0 0 0 0 0 0 0 0 0 0 0 0 0 0 0 0 0 0 0 0 0 0 0 0 0 0
Wind_Speed
4 4 4 5 5 4 4 5 6 5 5 3 3 3 2 2 2 1 2 3 3 3 3 2 2 2 2 2 2 2 2 2 1 2 2 3 2 2 1 1 1 2 2
3 4 4 4 5 5 5 6 5 6 5 4 3 3 3 2 1 1 2 2 2 2 2 2 2 2 2 2 2 2 1 1 2 2 2 2 3 3 2 1 1 1 1
7 6 6 5 5 5 6 6 6 5 5 5 4 3 3 2 2 1 1 1 2 2 2 3 2 2 2 2 1 1 2 1 1 1 2 2 1 2 2 2 1 1 1
5 6 6 6 6 6 5 5 6 6 5 5 5 5 4 3 3 2 2 1 2 2 2 3 3 3 2 2 1 1 1 2 1 0 1 1 2 1 2 3 2 2 2
6 7 7 7 6 4 4 5 5 5 5 5 5 5 4 3 2 2 2 1 1 1 2 2 3 3 2 2 1 1 1 2 2 1 1 1 1 1 2 3 3 3 2
6 6 5 5 4 4 4 5 6 5 5 5 5 5 5 4 3 2 2 1 1 1 1 2 2 2 2 2 2 1 1 1 2 2 2 2 2 2 2 2 3 3 3
6 7 6 6 5 6 6 5 6 5 5 5 5 5 5 5 5 4 3 2 1 1 2 2 2 2 2 2 2 2 1 2 2 2 2 2 2 2 2 2 2 3 3
5 6 7 7 7 7 6 6 6 5 5 5 4 4 4 3 2 3 3 3 2 2 2 2 2 2 2 2 2 1 1 1 2 2 2 2 2 2 2 3 2 2 3
5 6 5 6 6 7 7 7 7 5 5 5 4 4 4 3 3 3 2 2 2 2 2 2 2 2 2 2 2 1 2 1 2 2 2 2 2 2 2 2 3 3 3
4 5 5 5 5 5 5 5 6 6 5 5 5 4 4 4 3 3 3 2 2 1 2 1 2 2 2 2 2 1 2 2 2 2 2 2 2 2 2 2 2 3 4
5 5 4 4 4 4 5 5 5 5 4 4 4 4 3 3 3 3 3 3 2 2 2 2 2 2 2 2 2 2 2 2 2 2 3 3 3 2 2 2 2 3 3
5 4 4 4 4 5 5 5 5 4 4 4 4 4 3 3 3 3 3 2 2 2 2 2 2 2 2 2 3 3 3 3 3 3 3 4 3 3 3 3 3 4 4
4 4 4 5 5 5 5 5 5 4 4 4 4 4 3 3 3 3 2 2 2 2 2 2 2 3 3 3 3 3 3 4 4 4 4 4 4 4 4 4 4 4 4
5 5 5 5 5 5 5 5 5 4 4 4 4 4 4 4 3 3 3 3 3 3 3 3 3 3 3 3 3 3 4 4 4 4 5 5 5 6 5 4 5 4 4
4 6 6 5 5 4 4 5 4 4 5 5 4 4 3 3 3 3 3 3 3 3 3 3 3 2 2 3 3 3 4 4 4 4 5 5 7 9 7 5 5 4 4
5 5 6 6 6 6 5 5 5 5 4 5 5 4 3 3 3 3 3 3 3 3 2 3 3 3 3 6 7 5 4 4 5 5 5 5 7 9 12 13 12 9 7
5 5 6 7 7 6 6 6 5 4 4 4 4 4 4 3 3 3 2 3 3 2 3 3 3 4 5 8 8 8 4 4 5 5 5 5 6 8 6 9 13 12 14
5 5 5 5 5 5 4 4 4 4 4 4 4 4 4 3 3 2 3 3 2 3 3 3 4 4 6 8 9 9 5 4 5 5 6 6 6 6 7 6 6 7 8
4 4 5 4 4 4 4 4 4 4 4 4 4 4 4 4 3 3 3 3 2 3 3 3 4 4 6 8 9 8 3 3 5 5 5 6 6 11 13 8 7 8 8
2 2 2 2 3 4 4 5 4 4 5 5 5 4 4 4 4 4 3 3 3 3 3 4 4 4 5 9 10 8 3 4 4 4 5 9 10 12 14 7 6 8 9
1 1 2 3 4 4 4 5 4 6 5 4 4 4 4 4 4 3 2 2 2 2 3 4 4 4 6 8 10 9 3 4 4 4 4 5 12 14 15 12 7 11 11
1 2 2 2 2 3 4 4 5 5 4 3 4 4 4 3 3 3 2 2 2 2 3 3 4 4 4 6 8 10 9 8 5 5 5 6 13 15 15 12 12 15 13
2 2 2 2 2 3 4 5 5 4 3 3 4 3 3 3 3 3 3 2 2 2 3 3 4 4 3 5 10 10 11 11 6 5 10 12 14 14 10 11 15 12 6
3 2 2 3 3 3 4 5 4 3 4 4 4 3 3 3 3 3 3 3 3 3 3 4 4 4 4 3 3 4 5 7 6 5 8 12 12 10 10 10 8 5 5
3 3 3 4 5 4 4 4 4 4 4 4 4 3 3 3 3 3 4 4 5 5 5 4 4 4 5 6 9 6 4 4 5 5 4 3 4 4 4 4 5 4 5
4 3 4 4 5 4 5 4 4 5 5 4 4 3 3 3 3 3 3 5 6 8 10 9 7 6 9 11 11 11 11 11 11 7 4 5 5 5 5 6 5 5 5
Wind_Direction
196 171 167 156 146 146 150 163 160 156 145 135 139 133 139 124 117 133 134 125 120 115 112 120 110 100 98 92 93 99 74 42 34 55 21 2 11 30 30 38 50 40 38
180 167 159 154 156 162 162 165 167 164 159 150 145 135 134 131 134 125 122 128 126 128 120 115 117 110 102 84 75 95 97 41 39 87 80 9 350 355 9 357 28 31 21
192 181 172 170 164 171 174 170 166 166 161 149 127 109 93 83 94 119 126 141 142 137 130 124 117 113 118 125 119 125 130 133 16 79 129 136 238 308 323 332 348 349 350
194 186 178 178 182 187 177 162 163 161 156 148 149 148 149 156 178 169 155 140 137 139 141 136 134 130 125 137 154 129 142 144 153 25 58 151 163 168 308 317 322 321 301
196 192 188 185 182 175 167 161 156 155 150 151 155 147 146 153 140 129 138 149 135 147 155 147 139 138 141 153 151 130 141 154 163 167 153 87 77 152 180 273 305 319 298
194 192 187 171 160 154 156 155 153 156 155 154 154 156 158 156 147 149 159 171 161 168 170 144 143 150 156 168 175 171 166 173 168 169 173 175 184 193 188 233 268 285 286
193 184 179 173 167 166 167 165 160 163 161 156 160 166 166 165 170 173 176 178 184 196 203 165 161 162 173 178 170 172 190 193 184 188 197 200 210 197 192 216 258 279 287
197 187 184 181 178 176 171 168 169 167 161 161 167 165 161 161 175 178 171 180 193 204 195 180 177 175 168 176 171 182 205 197 203 211 208 212 229 209 200 198 216 285 292
196 189 183 179 177 175 175 174 169 164 164 166 162 161 161 163 174 174 168 181 196 195 182 176 179 186 174 179 175 200 222 212 215 220 221 227 237 225 222 210 197 207 267
199 186 182 180 177 175 169 163 164 167 163 162 165 166 170 173 171 164 174 185 194 188 175 183 196 211 199 188 183 206 224 223 237 221 227 241 245 244 235 225 223 212 227
204 193 189 183 171 160 160 162 164 159 159 162 160 156 164 164 163 175 188 191 192 191 195 199 200 210 217 205 198 220 224 229 245 243 234 245 244 244 245 235 231 231 223
198 188 181 172 168 170 171 171 169 167 169 164 158 163 165 162 170 188 198 191 197 203 201 199 204 217 222 215 210 225 229 228 239 246 244 251 251 247 246 237 239 241 230
193 186 180 181 182 181 177 174 173 175 169 161 160 164 171 174 185 196 199 194 198 207 209 203 213 225 229 228 228 227 233 234 237 238 240 249 246 255 253 246 246 249 251
194 188 191 195 191 186 180 177 182 176 169 166 168 178 189 191 196 199 198 202 201 205 215 219 224 228 232 235 237 236 239 242 243 241 240 243 239 246 251 253 249 249 252
202 196 194 196 193 191 189 186 186 179 172 169 179 195 195 191 193 198 206 210 210 213 215 218 231 235 234 235 238 237 238 242 249 251 247 246 251 255 259 260 251 244 250
212 204 197 195 197 197 194 190 190 186 172 177 191 192 185 189 198 207 208 209 213 214 211 220 230 242 250 270 269 266 246 245 246 255 258 259 263 268 274 276 272 260 254
215 208 203 202 202 200 192 192 192 178 172 184 192 189 188 197 207 207 203 211 217 212 222 232 234 244 258 274 276 273 265 245 245 249 256 267 266 277 266 274 279 276 272
220 214 206 204 202 193 187 180 173 173 181 191 198 197 193 204 206 202 215 219 214 215 224 233 237 244 260 275 280 279 265 247 248 247 247 255 264 265 270 264 267 266 267
225 215 204 195 186 184 176 162 173 178 186 200 206 204 197 203 205 215 227 220 214 227 230 235 236 244 265 278 282 282 255 251 257 254 250 254 259 273 280 277 271 277 275
230 210 188 167 175 186 165 165 185 190 206 211 210 203 196 202 212 221 226 216 213 229 237 248 244 243 256 275 282 282 249 255 266 266 259 266 272 276 281 273 264 273 278
243 200 174 185 198 182 165 180 196 212 217 207 202 201 201 208 215 219 221 221 223 234 247 259 263 253 256 272 279 280 263 247 262 268 267 263 279 284 285 285 271 271 281
252 205 190 214 215 183 174 196 218 222 208 198 202 209 210 212 208 209 227 225 218 235 255 265 277 266 261 268 277 281 278 275 263 265 266 270 282 286 288 287 282 286 290
247 229 205 222 236 209 193 208 227 210 198 198 211 218 218 216 205 204 218 230 223 228 247 253 268 278 269 270 280 283 283 281 277 266 274 282 286 290 289 284 288 291 285
245 233 217 227 244 234 220 221 222 200 192 205 217 217 214 223 221 213 210 215 224 232 242 248 259 271 274 266 264 265 276 281 279 277 279 286 287 287 285 287 288 277 266
249 229 221 230 241 240 235 230 216 192 200 212 218 218 219 222 229 227 221 221 223 219 228 237 238 253 270 268 276 281 272 266 266 286 281 278 283 278 277 275 270 267 270
243 238 237 238 244 241 242 236 215 196 198 212 218 219 220 223 225 238 267 251 244 257 257 256 255 257 264 282 284 284 285 287 286 291 277 278 278 278 281 281 279 272 267